Regional Weather Roundup
Issued by NWS

Home | Current Version | Previous Version | Graphics & Text | Print | Product List | Glossary On
Versions: 1 2 3 4 5 6 7 8 9 10 11 12 13 14 15 16 17 18 19 20 21 22 23 24 25 26 27 28 29 30 31 32 33 34 35 36 37 38 39 40 41 42 43 44 45 46 47 48 49 50
000
ASUS43 KMKX 050111
RWRWI

WISCONSIN REGIONAL WEATHER ROUNDUP
NATIONAL WEATHER SERVICE MILWAUKEE/SULLIVAN WI
800 PM CDT FRI SEP 04 2015

NOTE: "FAIR" INDICATES FEW OR NO CLOUDS BELOW 12,000 FEET WITH NO
SIGNIFICANT WEATHER AND/OR OBSTRUCTIONS TO VISIBILITY.

WIZ001-002-006>008-014>016-023>028-050200-
NORTHWEST WISCONSIN

CITY           SKY/WX    TMP DP  RH WIND       PRES   REMARKS
SUPERIOR ARPT  CLEAR     59  57  93 NE6       29.97S
ASHLAND        PTCLDY    64  63  96 CALM      29.98S
HAYWARD        CLEAR     76  68  76 SE6       29.99S
SIREN          PTCLDY    78  71  77 SE6       29.95S HX  81
CUMBERLAND     CLEAR     73  70  88 SE6       29.98S
RICE LAKE      CLEAR     76  70  82 E7        30.00S
CHETEK         CLEAR     76  72  86 SE6       29.99S
LADYSMITH      CLEAR     75  66  74 SE6       30.04R
EAU CLAIRE     CLEAR     79  71  76 SE9       29.97R HX  82
MENOMONIE      CLEAR     79  72  77 E3        29.97S HX  82
NEW RICHMOND   CLEAR     78  70  77 SE6       29.95S HX  80
OSCEOLA        CLEAR     79  72  77 SE8       29.96S HX  83
$$

WIZ003>005-009-010-017-018-050200-
NORTH CENTRAL WISCONSIN

CITY           SKY/WX    TMP DP  RH WIND       PRES   REMARKS
MANITOWISH WTR CLEAR     73  67  81 SE5       30.04S
ARBOR VITAE    CLEAR     73  66  79 SE6       30.06R
WOODRUFF       CLEAR     73  66  79 SE6       30.06R
RHINELANDER    CLEAR     71  65  81 SE5       30.07R
EAGLE RIVER    CLEAR     72  63  72 SE3       30.07R
LAND O LAKES   CLEAR     69  65  85 SE3       30.08R
PHILLIPS       PTCLDY    74  68  79 SE3       30.03R
TOMAHAWK       CLEAR     71  65  80 CALM      30.06R
MEDFORD        CLEAR     71  67  88 S5        30.05R
MERRILL        CLEAR     73  67  81 CALM      30.06R
$$

WIZ029-030-035-036-043>047-050200-
CENTRAL WISCONSIN

CITY           SKY/WX    TMP DP  RH WIND       PRES   REMARKS
WAUSAU         CLEAR     74  66  76 SE7       30.03S
MOSINEE        CLEAR     72  68  88 SE3       30.06R
MARSHFIELD     CLEAR     73  65  75 SE7       30.04R
STEVENS POINT  CLEAR     70  66  87 CALM      30.05S
WAUPACA        CLEAR     72  70  93 CALM      30.05R
WAUTOMA        CLEAR     70  67  90 CALM      30.05R
WISC RAPIDS    CLEAR     73  65  75 E6        30.05R
CAMP DOUGLAS   CLEAR     73  73 100 E8        30.01R
$$

WIZ011>013-019>022-031-037>040-048>050-050200-
NORTHEAST WISCONSIN

CITY           SKY/WX    TMP DP  RH WIND       PRES   REMARKS
ANTIGO         CLEAR     67  65  92 SE7       30.08R
SHAWANO        NOT AVBL
OCONTO         PTCLDY    68  68 100 CALM      30.05S
STURGEON BAY   PTCLDY    66  63  88 CALM      30.08R
GREEN BAY      CLEAR     70  65  84 E9        30.05R
MANITOWOC      PTCLDY    65  63  93 MISG      30.06R
APPLETON       CLOUDY    73  64  73 VRB5      30.04R
CLINTONVILLE   CLEAR     70  64  83 SE3       30.05R
OSHKOSH        CLEAR     68  65  90 CALM      30.04S
$$

WIZ032>034-041-042-053>061-050200-
SOUTHWEST WISCONSIN

CITY           SKY/WX    TMP DP  RH WIND       PRES   REMARKS
LA CROSSE      CLEAR     80  71  74 E5        29.97R HX  84
SPARTA         PTCLDY    77  70  78 E5        30.01R
VIROQUA        CLEAR     76  72  85 SE3       30.02R
BOSCOBEL       PTCLDY    78  76  93 CALM      29.98R FOG     HX  81
PRAIRIE DU CHI CLEAR     80  70  71 E3        29.97R HX  83
PLATTEVILLE    CLEAR     79  74  82 S6        30.00S HX  83
$$

WIZ056-057-062-063-064-067-068-050200-
SOUTH CENTRAL WISCONSIN

CITY           SKY/WX    TMP DP  RH WIND       PRES   REMARKS
REEDSBURG      CLEAR     77  71  81 E3        30.01R
BARABOO/DELLS  CLEAR     75  67  76 E6        30.02R
LONE ROCK      PTCLDY    78  73  84 E6        30.00R HX  81
MINERAL POINT  PTCLDY    81  72  74 CALM      30.02R HX  84
MADISON        PTCLDY    76  69  79 E6        30.01R
MIDDLETON      PTCLDY    77  70  78 E6        30.02R
WATERTOWN      PTCLDY    73  73 100 E8        30.03R
MONROE         PTCLDY    81  72  74 S5        30.02R HX  84
JANESVILLE     MOCLDY    81  72  74 E7        30.00R HX  84
$$

WIZ051-052-058>065-066-070>072-050200-
SOUTHEAST WISCONSIN

CITY           SKY/WX    TMP DP  RH WIND       PRES   REMARKS
MILWAUKEE      MOCLDY    67  64  90 E5        30.03F
WAUKESHA       PTCLDY    68  63  83 E7        30.05S
MILWAUKEE/TIMM CLEAR     70  63  78 E3        30.04F
RACINE         MOCLDY    68  65  90 E6        30.06R
BURLINGTON     PTCLDY    68  63  86 E6        30.04S
KENOSHA        CLOUDY    68  65  90 E8        30.05S
FOND DU LAC    PTCLDY    71  65  81 SE5       30.04S
SHEBOYGAN      CLEAR     64  63  96 NE3       30.05S
WEST BEND      CLEAR     66  63  88 CALM      30.05S
JUNEAU         CLEAR     71  67  85 E7        30.05R
$$

LSZ147-162-050200-
LAKE SUPERIOR

STATION/POSITION TIME  TEMP    WIND        PRES    WAVE
                       AIR SEA DIR/SP/G            HT/PER
                 (UTC) (F)     (DEG/KT/KT) (MB)    (FT/S)
W MID LAKE BUOY  0050   64 58   90/ 16/ 17 1015.1F   1/ 3
DEVILS ISLAND    0100   64      90/ 10/ 11 1014.9S
PORT WING        0000   53      30/ 14/ 16 1014.6
SAXON HARBOR     0000   71        CALM     1014.2F
$$

LMZ867-665-643>646-050200-
LAKE MICHIGAN

STATION/POSITION TIME  TEMP    WIND        PRES    WAVE
                       AIR SEA DIR/SP/G            HT/PER
                 (UTC) (F)     (DEG/KT/KT) (MB)    (FT/S)
CHAMBERS ISLAND  0000   71      80/  2/  2 1017.3S
S GREEN BAY BUOY 0100   68 67   80/  2/  4 1019.0R
N MID LAKE BUOY  0050   68 67   30/  4/  4 1017.2R   1/ 3
NORTHPORT PIER   0000   68     100/  3/  5 1017.3R
SISTER BAY       0026   69        CALM       N/A
ALGOMA LAKESHORE 0014             CALM       N/A
KEWAUNEE LAKESHO 0000   66      20/  4/  7 1016.6R
SHEBOYGAN LAKESH 0100   59     360/  7/  7 1018.0R
PORT WASHINGTON  0000   64      60/  2/  3 1017.9R
ATWATER BUOY     0100   62 61  350/  2/  4 1018.7F
MILWAUKEE LAKESH 0010   65     360/  2/  2   N/A
S MID LAKE BUOY  0050   67 71   50/  8/ 10 1016.8R   1
KENOSHA   LAKESH 0100   66      80/  2/  4 1016.9S
$$

TC  - TEMPERATURE IN CELSIUS
VSB - VISIBILITY IN STATUTE MILES
WCI - WIND CHILL INDEX
HX  - HEAT INDEX




USA.gov is the U.S. government's official web portal to all federal, state and local government web resources and services.